Location: Byhalia Creek
(34.8270°N, 89.8040°W)
Time: 20:43:49
(UTC+00:00)

Cosmos 1500 Rocket - Pass Details

Date: 22 April 2026
Orbit: 597 x 622 km, 82.5° (Epoch: 21 May)

Event Time Altitude Azimuth Distance (km) Brightness Sun altitude
Rises 10:15:50 0° 353° (N) 2,895 7.2 -12.9°
Reaches altitude 10° 10:18:04 10° 353° (N) 1,988 6.4 -12.5°
Maximum altitude 10:22:29 90° 301° (WNW) 625 3.5 -11.7°
Drops below altitude 10° 10:26:53 10° 175° (S) 1,981 6.0 -10.9°
Sets 10:29:06 0° 175° (S) 2,884 6.8 -10.4°
